Find Starlink 11343

NORAD ID: 62017 Int'l Des: 2024-213 Owner: SPXS Country: US Constellation: starlink operational
LEOCIRCULAR

Current View

Loading 3D Globe...

About Starlink 11343

Starlink 11343 (NORAD 62017) is a starlink constellation satellite (v2 mini d2c) launched Nov 18, 2024 by SPXS of US. It operates in LEO, CIRCULAR orbit with a mass of 960.00 kg.

About Starlink 11343

Description loading...

Upcoming Passes

Passes for default location (London). Set your location on the main map for personalized predictions.

Altitude History

Loading altitude history...

Two-Line Element Set

1 62017U 24213K 26174.57174957 .00109356 00000-0 89497-3 0 9997
2 62017 53.1568 239.4154 0001004 67.2031 292.9093 15.69727929 91548
Epoch: Jun 23, 2026 • Age: 16 hours

Current Status

Altitude 377.0 km
Velocity 7.68 km/s
Sub-Earth Point -49.66°S, 113.91°E
Launch Date Nov 18, 2024
Age 1.5 years
Type internet

Technical Details

Classification Payload
Mass 960.00 kg
Dry Mass 910.00 kg
Total Mass 960.00 kg
Length 0.30 m
Diameter 4.10 m
Span 29.00 m
Shape Box + pan
Manufacturer SPXS
Bus Type Starlink V2MD
Phase Status In Orbit
Owner/State SPXS/US

Most Searched